Regional Weather Roundup
Issued by NWS

Home | Current Version | Previous Version | Graphics & Text | Print | Product List | Glossary On
Versions: 1 2 3 4 5 6 7 8 9 10 11 12 13 14 15 16 17 18 19 20 21 22 23 24 25 26 27
000
ASUS45 KTFX 180210
RWRMT
MONTANA REGIONAL WEATHER ROUNDUP
NATIONAL WEATHER SERVICE GREAT FALLS MT
800 PM MDT TUE OCT 17 2017

NOTE: "FAIR" INDICATES FEW OR NO CLOUDS BELOW 12000 FEET WITH NO
SIGNIFICANT WEATHER AND/OR OBSTRUCTIONS TO VISIBILITY.

MTZ001>007-043-180300-
WEST OF THE DIVIDE

CITY           SKY/WX    TMP DP  RH WIND       PRES   REMARKS
KALISPELL      CLOUDY    59  31  34 W15G22    29.77R
MISSOULA       PTCLDY    61  31  32 W21G39    29.89R
BUTTE          CLOUDY    59  17  19 W12G22    29.95R
MULLAN PASS    CLOUDY    41  29  62 W12G26    29.96R
ANACONDA         N/A     61  19  20 SW23G35   29.90R
DEER LODGE       N/A     61  21  21 SW15G28   29.90R
HAMILTON         N/A     64  25  22 SW14G22   29.90R
LIBBY            N/A     59  25  27 S9G22     29.82R
PLAINS           N/A     61  35  37 SW21      29.88R
$$

MTZ008-052>055-180300-
SOUTHWEST MONTANA

CITY           SKY/WX    TMP DP  RH WIND       PRES   REMARKS
BOZEMAN        CLOUDY    60  19  20 SW13      29.87R
DILLON         CLOUDY    56  20  24 S16       29.94R
W YELLOWSTONE  CLOUDY    48  16  27 E7        30.11R
ENNIS          CLOUDY    55  18  22 S20G28    30.01S
THREE FORKS      N/A     61  18  19 SW8       29.87R
TWIN BRIDGES     N/A     56  18  22 SE1       29.93R
$$

MTZ009-010-012-014-046-048-049-054-180300-
EAST SLOPES AND CENTRAL MONTANA

CITY           SKY/WX    TMP DP  RH WIND       PRES   REMARKS
CUT BANK       CLEAR     58  24  27 SW44G54   29.62R
GREAT FALLS    PTCLDY    64  21  19 SW41G58   29.66R
MALMSTROM AFB  CLOUDY    64  23  20 SW37G49   29.68R SQUALL
HELENA         CLEAR     66  21  18 W22G33    29.81R
BOWMANS CRNR     N/A     58  22  24 W38G46    29.74R
CHOTEAU          N/A     61  25  25 SW39G48   29.68R
FAIRFIELD        N/A     61  24  23 SW32G46   29.67R
POWER            N/A     62  23  22 W53G60    29.66R
RAYNESFORD       N/A     65  18  16 SW32G41   29.70R
ULM              N/A     64  22  20 W36G47    29.72R
$$

MTZ011-013-016-021-045-047-050-051-180300-
NORTH CENTRAL MONTANA

CITY           SKY/WX    TMP DP  RH WIND       PRES   REMARKS
HAVRE          CLOUDY    67  24  19 SW33G45   29.48R
LEWISTOWN      CLOUDY    63  19  18 SW23      29.68S
N BAR RANCH      N/A     66  14  13 SW24G36   29.71F
CHINOOK          N/A     72  23  16 SW28G40   29.47R
DENTON           N/A     67  17  14 W29G43    29.59S
GEYSER         MOCLDY    65  16  15 W26G35    29.67R
GRASS RANGE      N/A     68  16  13 SW25G36   29.59F
JUDITH GAP       N/A     63  19  17 W38G47    29.73S
WINIFRED         N/A     66  18  16 W22G30    29.61S
$$

MTZ017>020-022>027-061-062-180300-
NORTHEAST MONTANA

CITY           SKY/WX    TMP DP  RH WIND       PRES   REMARKS
GLASGOW        CLOUDY    64  25  22 S12       29.48F
JORDAN           N/A     65  23  20 SW13      29.58F
SIDNEY         CLOUDY    61  26  26 SW15      29.56F
WOLF POINT     CLOUDY    63  25  23 S7        29.50F
MALTA          CLEAR     61  27  27 SW14      29.46F
PLENTYWOOD       N/A     66  25  20 S15       29.46F
POPLAR           N/A     66  25  20 S16       29.50F
SCOBEY           N/A     63  22  21 S17       29.48
$$

MTZ028>42-056>058-180300-
SOUTHCENTRAL AND SOUTHEAST MONTANA

CITY           SKY/WX    TMP DP  RH WIND       PRES   REMARKS
BAKER          CLOUDY    63  21  20 SW17      29.72F
BILLINGS       PTCLDY    63  24  22 SW16      29.75F
LIVINGSTON     CLOUDY    64  16  15 SW41G53   29.80R
MILES CITY     CLOUDY    66  25  21 S9        29.67F
BIG TIMBER     CLEAR     63  14  15 SW15      29.85S
EKALAKA          N/A     68  15  13 SE6       29.77
FORSYTH          N/A     73  19  13 SW20G25   29.67F
HARLOWTON        N/A     64  16  15 MISG      29.74S
LAUREL           N/A     59  21  23 W9        29.78F
$$

REGIONAL REPORTS...DAKOTAS

CITY           SKY/WX    TMP DP  RH WIND       PRES   REMARKS
WILLISTON      CLOUDY    61  27  27 SW8       29.54F
MINOT          CLOUDY    65  28  24 SW9G18    29.55F
DICKINSON      CLOUDY    57  24  28 SW13      29.66F
BEACH            N/A     61  21  21 SW17G23   29.69F
CROSBY           N/A     57  27  30 S15       29.48F
TIOGA            N/A     59  25  27 SW16      29.55F
WATFORD CITY     N/A     55  27  33 SW7       29.57F
BISMARCK       CLEAR     59  26  28 CALM      29.68F
GRAND FORKS    PTCLDY    59  35  40 S12       29.63F
FARGO          CLEAR     66  43  43 S14G22    29.71F
BUFFALO SD       N/A     58  22  24 S12       29.71F
RAPID CITY     CLOUDY    49  27  42 W3        29.84F
$$

REGIONAL REPORTS...WYOMING/IDAHO/WASHINGTON

CITY           SKY/WX    TMP DP  RH WIND       PRES   REMARKS
GILLETTE       CLOUDY    64  16  15 SW21G28   29.87S
SHERIDAN       CLOUDY    65  20  17 VRB6      29.82S
BUFFALO WY     CLOUDY    65  13  13 S7        29.90S
CODY           CLOUDY    59  18  20 VRB5      29.95S
IDAHO FALLS    CLOUDY    57  29  34 S15       30.07F
SALMON         PTCLDY    46  31  55 E3        29.99R
BOISE          CLEAR     55  34  45 CALM      30.06S
SPOKANE        CLOUDY    52  27  38 SW17      29.98R
$$

REGIONAL REPORTS...ALBERTA

CITY           SKY/WX    TMP DP  RH WIND       PRES   REMARKS
EDMONTON       CLOUDY    41  34  75 W23G36    29.43R
CALGARY        MOCLDY    37  34  87 N17       29.57R WCI  28
LETHBRIDGE     PTCLDY    48  27  43 W38G48    29.60R
MEDICINE HAT   PTCLDY    59  36  41 MISG      29.47R
$$

REGIONAL REPORTS...SASKATCHEWAN

CITY           SKY/WX    TMP DP  RH WIND       PRES   REMARKS
SWIFT CURRENT  CLEAR     64  21  19 SW26G32   29.29S
REGINA         PTCLDY    55  21  26 S14       29.30F
SASKATOON      MOCLDY    70  23  17 SW23G31   29.06F SMOKE
$$




USA.gov is the U.S. government's official web portal to all federal, state and local government web resources and services.